When you browse on this site, cookies collect data to enhance your experience and personalize the content and advertising you see.
Visit our Privacy Policy to learn more. By continuing to use the site, you agree to this use of cookies and data.
  • In United Kingdom
  • List of Countries
  • For 7 days
  • Water Temperature
  • Weather Map
  • Weather Widgets
  • user-avatar
    Login

    Hourly Weather Giumri

    Today, 17 September, Tuesday

    Time Temperature Precipitation Wind Pressure Humidity
    00:00 +15°C° 0 mm 1 mps 635 mmHg 79%
    01:00 +14°C° 0 mm 1 mps 635 mmHg 78%
    02:00 +14°C° 0 mm 1 mps 634 mmHg 77%
    03:00 +14°C° 0 mm 1 mps 634 mmHg 77%
    04:00 +14°C° 0 mm 1 mps 634 mmHg 77%
    05:00 +14°C° 0 mm 1 mps 634 mmHg 77%
    06:00 +13°C° 0 mm 1 mps 634 mmHg 77%
    07:00 +16°C° 0 mm 1 mps 634 mmHg 69%
    08:00 +18°C° 0 mm 2 mps 635 mmHg 61%
    09:00 +20°C° 0 mm 3 mps 636 mmHg 52%
    10:00 +21°C° 0 mm 4 mps 636 mmHg 47%
    11:00 +22°C° 0 mm 5 mps 636 mmHg 42%
    12:00 +24°C° 0 mm 6 mps 636 mmHg 38%
    13:00 +24°C° 0 mm 6 mps 636 mmHg 36%
    14:00 +24°C° 0 mm 7 mps 636 mmHg 35%
    15:00 +24°C° 0 mm 7 mps 635 mmHg 34%
    16:00 +22°C° 0.2 mm 5 mps 635 mmHg 42%
    17:00 +20°C° 0.2 mm 4 mps 634 mmHg 49%
    18:00 +18°C° 0.2 mm 2 mps 634 mmHg 57%
    19:00 +17°C° 0.5 mm 2 mps 634 mmHg 61%
    20:00 +16°C° 0.5 mm 2 mps 635 mmHg 66%
    21:00 +15°C° 0.5 mm 1 mps 635 mmHg 71%
    22:00 +14°C° 0 mm 1 mps 635 mmHg 72%
    23:00 +14°C° 0 mm 1 mps 635 mmHg 72%

    Tomorrow, 18 September, Wednesday

    Time Temperature Precipitation Wind Pressure Humidity
    00:00 +13°C° 0 mm 1 mps 635 mmHg 73%
    01:00 +13°C° 0 mm 1 mps 635 mmHg 74%
    02:00 +13°C° 0 mm 1 mps 635 mmHg 75%
    03:00 +12°C° 0 mm 1 mps 635 mmHg 76%
    04:00 +12°C° 0 mm 1 mps 635 mmHg 76%
    05:00 +12°C° 0 mm 1 mps 635 mmHg 76%
    06:00 +11°C° 0 mm 1 mps 635 mmHg 76%
    07:00 +13°C° 0 mm 1 mps 636 mmHg 69%
    08:00 +15°C° 0 mm 1 mps 637 mmHg 61%
    09:00 +18°C° 0 mm 1 mps 638 mmHg 54%
    10:00 +20°C° 0 mm 1 mps 638 mmHg 47%
    11:00 +20°C° 0 mm 2 mps 638 mmHg 41%
    12:00 +23°C° 0 mm 2 mps 639 mmHg 35%
    13:00 +24°C° 0 mm 2 mps 639 mmHg 32%
    14:00 +24°C° 0 mm 2 mps 639 mmHg 30%
    15:00 +25°C° 0 mm 2 mps 639 mmHg 27%
    16:00 +24°C° 0 mm 2 mps 638 mmHg 31%
    17:00 +22°C° 0 mm 1 mps 638 mmHg 35%
    18:00 +21°C° 0 mm 1 mps 637 mmHg 39%
    19:00 +20°C° 0 mm 1 mps 637 mmHg 43%
    20:00 +18°C° 0 mm 1 mps 637 mmHg 46%
    21:00 +16°C° 0 mm 1 mps 637 mmHg 49%
    22:00 +16°C° 0 mm 1 mps 637 mmHg 51%
    23:00 +15°C° 0 mm 1 mps 637 mmHg 52%

    Day after tomorrow, 19 September, Thursday

    Time Temperature Precipitation Wind Pressure Humidity
    00:00 +15°C° 0 mm 1 mps 637 mmHg 54%
    01:00 +15°C° 0 mm 1 mps 637 mmHg 54%
    02:00 +14°C° 0 mm 1 mps 636 mmHg 54%
    03:00 +14°C° 0 mm 1 mps 636 mmHg 55%
    04:00 +14°C° 0 mm 1 mps 636 mmHg 55%
    05:00 +13°C° 0 mm 1 mps 636 mmHg 56%
    06:00 +13°C° 0 mm 1 mps 636 mmHg 56%
    07:00 +15°C° 0 mm 1 mps 637 mmHg 50%
    08:00 +19°C° 0 mm 1 mps 637 mmHg 44%
    09:00 +21°C° 0 mm 1 mps 638 mmHg 38%
    10:00 +22°C° 0 mm 1 mps 638 mmHg 33%
    11:00 +24°C° 0 mm 2 mps 639 mmHg 29%
    12:00 +25°C° 0 mm 2 mps 639 mmHg 24%
    13:00 +26°C° 0 mm 2 mps 639 mmHg 23%
    14:00 +26°C° 0 mm 2 mps 639 mmHg 21%
    15:00 +27°C° 0 mm 2 mps 639 mmHg 20%
    16:00 +25°C° 0 mm 2 mps 638 mmHg 26%
    17:00 +23°C° 0 mm 2 mps 638 mmHg 32%
    18:00 +20°C° 0 mm 2 mps 637 mmHg 38%
    19:00 +19°C° 0 mm 2 mps 637 mmHg 44%
    20:00 +18°C° 0 mm 2 mps 637 mmHg 50%
    21:00 +16°C° 0 mm 2 mps 637 mmHg 56%
    22:00 +16°C° 0 mm 2 mps 636 mmHg 58%
    23:00 +15°C° 0 mm 2 mps 636 mmHg 59%

    20 September, Friday

    Time Temperature Precipitation Wind Pressure Humidity
    00:00 +15°C° 0 mm 2 mps 636 mmHg 60%
    01:00 +14°C° 0 mm 2 mps 636 mmHg 60%
    02:00 +14°C° 0 mm 2 mps 635 mmHg 61%
    03:00 +14°C° 0 mm 1 mps 635 mmHg 61%
    04:00 +13°C° 0 mm 1 mps 635 mmHg 61%
    05:00 +13°C° 0 mm 1 mps 634 mmHg 61%
    06:00 +13°C° 0 mm 1 mps 634 mmHg 61%
    07:00 +15°C° 0 mm 1 mps 635 mmHg 54%
    08:00 +18°C° 0 mm 1 mps 635 mmHg 47%
    09:00 +21°C° 0 mm 1 mps 636 mmHg 40%
    10:00 +21°C° 0 mm 2 mps 636 mmHg 35%
    11:00 +23°C° 0 mm 4 mps 636 mmHg 29%
    12:00 +26°C° 0 mm 5 mps 636 mmHg 23%
    13:00 +27°C° 0 mm 5 mps 636 mmHg 22%
    14:00 +27°C° 0 mm 6 mps 636 mmHg 20%
    15:00 +28°C° 0 mm 6 mps 635 mmHg 19%
    16:00 +26°C° 0 mm 5 mps 635 mmHg 26%
    17:00 +23°C° 0 mm 4 mps 634 mmHg 33%
    18:00 +21°C° 0 mm 3 mps 634 mmHg 40%
    19:00 +20°C° 0 mm 3 mps 633 mmHg 49%
    20:00 +19°C° 0 mm 3 mps 633 mmHg 58%
    21:00 +17°C° 0 mm 3 mps 633 mmHg 67%
    22:00 +16°C° 0 mm 3 mps 633 mmHg 71%
    23:00 +16°C° 0 mm 3 mps 633 mmHg 75%

    21 September, Saturday

    Time Temperature Precipitation Wind Pressure Humidity
    00:00 +14°C° 0 mm 3 mps 632 mmHg 78%
    01:00 +13°C° 0 mm 3 mps 632 mmHg 79%
    02:00 +14°C° 0 mm 2 mps 632 mmHg 80%
    03:00 +13°C° 0 mm 2 mps 631 mmHg 81%
    04:00 +12°C° 0 mm 2 mps 631 mmHg 81%
    05:00 +12°C° 0 mm 2 mps 631 mmHg 82%
    06:00 +10°C° 0 mm 2 mps 631 mmHg 82%
    07:00 +13°C° 0 mm 2 mps 632 mmHg 73%
    08:00 +15°C° 0 mm 2 mps 632 mmHg 64%
    09:00 +16°C° 0 mm 2 mps 633 mmHg 56%
    10:00 +18°C° 0 mm 2 mps 633 mmHg 50%
    11:00 +19°C° 0 mm 3 mps 633 mmHg 44%
    12:00 +20°C° 0 mm 3 mps 633 mmHg 38%
    13:00 +20°C° 0 mm 4 mps 633 mmHg 37%
    14:00 +21°C° 0 mm 6 mps 633 mmHg 37%
    15:00 +21°C° 0 mm 7 mps 633 mmHg 36%
    16:00 +17°C° 0 mm 6 mps 632 mmHg 44%
    17:00 +15°C° 0 mm 5 mps 632 mmHg 51%
    18:00 +13°C° 0 mm 5 mps 632 mmHg 58%
    19:00 +11°C° 0 mm 4 mps 632 mmHg 61%
    20:00 +10°C° 0 mm 3 mps 633 mmHg 64%
    21:00 +9°C° 0 mm 2 mps 633 mmHg 67%
    22:00 +8°C° 0 mm 2 mps 633 mmHg 68%
    23:00 +8°C° 0 mm 2 mps 633 mmHg 69%

    22 September, Sunday

    Time Temperature Precipitation Wind Pressure Humidity
    00:00 +7°C° 0 mm 2 mps 633 mmHg 71%
    01:00 +6°C° 0 mm 2 mps 633 mmHg 71%
    02:00 +6°C° 0 mm 2 mps 633 mmHg 71%
    03:00 +5°C° 0 mm 2 mps 634 mmHg 72%
    04:00 +5°C° 0 mm 1 mps 634 mmHg 71%
    05:00 +5°C° 0 mm 1 mps 634 mmHg 69%
    06:00 +5°C° 0 mm 1 mps 634 mmHg 68%
    07:00 +5°C° 0 mm 2 mps 635 mmHg 60%
    08:00 +7°C° 0 mm 2 mps 636 mmHg 52%
    09:00 +8°C° 0 mm 2 mps 636 mmHg 44%
    10:00 +10°C° 0 mm 2 mps 637 mmHg 40%
    11:00 +12°C° 0 mm 2 mps 637 mmHg 36%
    12:00 +13°C° 0 mm 3 mps 638 mmHg 32%
    13:00 +13°C° 0 mm 3 mps 638 mmHg 32%
    14:00 +14°C° 0 mm 3 mps 638 mmHg 31%
    15:00 +14°C° 0 mm 3 mps 638 mmHg 31%
    16:00 +13°C° 0 mm 3 mps 637 mmHg 39%
    17:00 +11°C° 0 mm 3 mps 637 mmHg 47%
    18:00 +10°C° 0 mm 3 mps 637 mmHg 55%
    19:00 +8°C° 0 mm 3 mps 637 mmHg 59%
    20:00 +7°C° 0 mm 3 mps 637 mmHg 64%
    21:00 +5°C° 0 mm 3 mps 637 mmHg 69%
    22:00 +5°C° 0 mm 2 mps 637 mmHg 70%
    23:00 +5°C° 0 mm 2 mps 637 mmHg 71%
    Show more